Back to catalog

ATLAS 5 CENTAUR DEB

AliveHEO
NORAD 43991·DEBRIS·🇺🇸 United States

Launched Sep 17, 2014 from Cape Canaveral Space Force Station

Loading…

Next Passes (next 24 hours)

TLE

AgingSource: Space-Track

Epoch: Aug 31, 2026, 09:34 UTC

1 43991U 14055AW  26243.39875249 -.00000020  00000-0  00000-0 0  9998
2 43991  19.6161 166.1635 4622476 128.1553 283.2121  1.82443660 52691

Track ATLAS 5 CENTAUR DEB in real time with AllMySat

Download on the App Store